Theta_e
343 344 346 345 346 347 348 348 349 347 345 343 343 343 343 343 343 343 344 344 344 345 348 349 348 348 348 348 348 349 348 348 347 347 347 347 347 346 346 347 346 345 344 344 344 344 343 342 341 341 343 345 346 346 347 346 346 346 345 345 345 346 347 346 347 347 347 346 346 346 346 345 345 343 342 343 343 342 342 342 340 337 338 339 340
341 345 346 347 346 347 347 347 348 346 344 344 344 343 343 342 342 344 344 343 343 344 348 348 348 348 348 348 349 348 348 347 347 346 346 346 345 345 344 344 343 343 343 342 342 340 341 342 341 341 344 345 345 345 345 345 345 344 344 344 344 344 344 344 344 346 346 345 344 344 345 345 345 344 343 342 342 341 341 341 341 338 337 339 340
344 344 346 348 346 347 347 347 347 345 344 343 343 342 342 342 341 343 344 343 343 345 348 348 347 348 348 348 347 347 346 346 345 345 345 344 344 344 343 342 341 341 341 339 339 340 340 340 340 341 343 344 343 344 343 344 344 344 344 343 343 343 343 343 343 342 343 345 344 344 344 344 343 343 344 343 342 342 341 341 340 339 335 337 337
342 343 345 346 345 347 347 347 346 344 343 343 342 342 341 341 341 341 343 342 343 347 348 348 348 348 348 347 347 347 346 345 344 344 344 343 343 342 342 341 341 342 342 341 340 340 340 340 340 341 341 341 342 343 342 343 342 343 343 343 343 343 343 343 343 342 343 343 343 341 340 341 341 343 343 343 345 346 343 344 343 344 343 342 340
343 343 345 347 348 346 347 348 346 344 343 342 342 342 341 340 341 341 342 341 343 348 348 348 347 348 347 346 347 346 345 344 343 343 343 343 342 340 339 340 340 343 342 338 338 338 338 338 339 339 340 340 340 341 341 342 342 342 342 343 342 342 342 342 342 342 343 342 341 337 335 336 338 340 342 345 345 343 342 342 342 343 343 342 342
342 343 345 347 347 347 346 347 346 344 344 343 343 342 341 341 341 341 341 340 339 346 346 346 346 347 346 346 346 345 343 342 342 342 342 342 341 340 339 338 339 341 341 339 338 339 338 338 338 338 338 338 337 339 340 341 342 342 342 342 342 342 342 342 342 343 341 341 340 339 340 341 340 340 341 345 344 341 341 341 342 341 341 342 342
341 343 344 345 347 347 344 347 345 344 343 343 342 342 341 341 341 342 341 340 341 345 345 345 345 347 347 347 346 345 345 344 343 342 341 341 340 339 338 339 340 340 341 342 341 338 340 340 339 338 338 337 336 338 338 338 340 340 342 342 342 342 341 341 341 342 342 339 339 340 340 342 341 341 341 342 342 342 340 341 341 341 341 341 341
343 344 344 346 348 345 345 348 345 344 344 343 342 341 341 340 340 341 341 340 340 345 345 345 345 346 347 346 345 343 342 341 340 340 341 340 338 339 339 338 339 342 341 342 340 339 339 339 338 338 339 338 338 339 339 339 340 340 341 342 341 341 341 340 340 340 340 339 340 340 339 341 340 340 340 342 341 341 341 340 339 339 338 337 337
342 343 344 347 348 343 344 347 346 346 344 342 342 342 341 340 340 340 341 340 342 344 344 345 346 346 346 345 345 342 340 339 339 339 339 339 337 337 337 337 338 340 340 340 340 339 337 337 338 338 339 338 338 339 338 339 340 339 340 341 340 340 340 339 339 340 337 338 338 338 339 339 339 338 339 340 339 339 338 336 337 337 336 336 336
343 345 346 346 350 342 345 346 346 345 344 343 342 342 341 340 340 340 340 339 339 342 342 344 344 345 345 345 344 341 339 339 338 338 338 337 336 336 336 337 339 339 340 340 340 341 341 340 338 338 338 339 338 338 338 339 339 340 340 340 340 339 339 338 339 338 337 337 337 338 338 337 336 336 337 338 338 337 335 333 334 334 334 334 333
344 345 347 347 349 341 347 347 346 345 344 343 343 342 341 341 340 340 339 338 338 340 341 340 343 344 345 344 344 342 339 338 337 337 337 336 336 339 337 337 338 340 340 340 341 341 340 341 340 338 339 340 339 339 338 339 339 340 340 340 339 339 338 338 337 336 337 336 336 336 336 338 335 335 336 336 337 336 335 335 334 333 333 333 333
343 346 347 348 346 340 346 346 346 345 344 343 343 342 342 341 340 339 339 339 338 340 340 340 340 341 343 343 343 343 340 337 336 336 336 335 337 335 336 337 338 338 339 340 341 341 340 340 339 339 341 339 339 339 338 339 339 340 340 339 338 337 337 337 336 336 336 335 335 334 333 332 333 334 335 335 334 333 332 332 332 333 333 333 331
343 344 347 349 346 339 344 345 345 345 344 343 343 342 341 340 340 339 339 339 339 340 339 338 341 340 340 343 343 342 340 337 336 335 335 335 337 337 337 337 337 338 338 338 338 339 340 339 339 339 339 339 338 338 338 339 339 339 339 338 337 336 336 335 336 336 336 336 334 334 332 333 333 333 333 333 333 332 332 333 332 331 330 330 331
343 344 346 347 347 345 339 343 345 346 346 345 343 343 342 341 339 339 339 339 340 339 339 338 337 337 338 338 339 341 340 339 337 335 334 335 337 336 335 337 338 338 338 340 340 340 340 340 339 338 338 338 338 339 339 339 339 339 338 337 336 335 334 333 334 336 335 336 335 334 334 333 333 334 333 333 335 335 334 331 330 331 331 332 330
343 345 346 347 347 348 341 339 341 342 344 345 344 343 342 342 341 340 340 340 339 340 339 339 339 338 338 339 339 340 340 338 337 335 334 335 338 337 337 337 337 337 338 339 339 340 339 340 338 339 338 337 339 339 339 339 339 338 337 336 334 333 332 335 335 335 335 334 334 334 333 332 334 332 334 335 335 333 331 330 332 331 329 328 326
344 345 346 345 347 348 347 343 335 336 341 342 343 343 344 342 343 342 341 340 340 340 339 339 338 338 340 340 339 339 339 338 337 335 334 336 338 337 337 336 336 336 337 339 338 338 338 338 338 337 337 337 338 339 339 338 337 336 335 334 333 332 330 332 336 335 334 333 333 333 332 332 334 332 332 332 332 330 328 328 331 330 328 327 327
343 345 344 345 348 347 347 346 341 331 334 337 339 339 341 342 343 342 342 342 342 340 339 340 340 337 340 340 341 340 339 337 336 334 334 335 337 337 336 336 336 336 337 337 337 336 337 337 336 336 336 336 336 338 338 337 336 334 333 331 331 330 330 331 336 335 333 334 334 333 331 332 333 333 333 331 329 328 331 331 329 327 326 325 325
343 343 343 344 346 347 346 346 346 345 346 339 334 337 338 340 340 340 341 340 342 342 341 340 340 340 339 338 337 338 339 338 338 334 335 335 337 339 336 335 334 335 336 337 337 337 336 336 336 335 336 335 335 336 337 336 335 333 332 330 329 329 329 330 335 335 334 334 334 334 333 334 333 330 329 328 327 328 329 328 326 325 325 324 324
342 342 343 345 344 346 346 346 345 344 345 344 345 345 334 337 337 337 339 339 339 339 337 335 336 335 334 333 333 332 333 335 337 335 334 334 334 337 338 337 336 335 335 336 336 336 335 335 335 335 335 334 335 335 335 334 333 331 329 328 327 327 327 332 335 335 334 333 333 333 330 332 329 328 329 329 327 327 328 327 325 324 324 324 323
341 341 342 344 344 343 345 345 344 343 344 343 344 345 335 331 334 335 335 336 336 335 332 330 328 327 327 329 329 333 331 333 326 332 330 330 330 333 334 336 335 334 333 335 334 335 334 334 334 334 334 334 335 334 332 332 330 329 327 326 326 326 335 334 335 334 333 332 332 330 330 333 331 330 329 330 329 327 326 325 323 323 323 323 322
338 340 342 342 343 343 344 344 343 343 343 343 343 343 344 331 332 330 331 332 332 331 329 324 324 323 326 324 328 336 336 335 334 334 326 334 323 327 334 335 335 335 336 334 334 334 334 334 334 333 333 333 329 327 327 329 328 326 325 324 322 334 335 335 334 333 333 331 330 330 332 332 331 331 329 326 324 326 324 322 323 322 322 322 322
335 337 341 342 342 342 344 343 343 343 343 342 342 342 344 338 342 342 342 336 329 327 334 339 334 338 323 333 336 335 334 335 335 333 332 333 332 323 327 332 334 332 334 333 333 334 334 333 333 332 331 328 325 333 329 322 321 322 321 319 332 334 334 334 333 333 332 330 331 330 333 334 330 326 325 326 328 326 324 322 322 322 322 321 320
334 336 338 340 341 341 342 341 342 342 343 342 341 341 341 342 342 340 340 333 337 339 340 338 338 338 338 337 333 334 334 334 335 333 333 325 330 322 325 329 331 330 331 333 332 332 332 332 330 327 325 324 332 334 333 333 330 317 319 331 334 333 334 333 333 331 331 331 332 328 332 328 327 327 327 328 325 324 323 322 321 321 321 320 320
334 335 337 340 340 340 341 342 341 342 341 341 341 340 341 341 340 339 338 338 338 339 340 339 339 338 338 336 333 335 335 334 326 325 330 332 330 321 321 323 324 324 325 330 329 329 329 326 324 322 325 329 332 331 332 333 332 333 333 332 333 333 334 333 332 331 331 332 332 324 331 328 329 328 328 327 325 324 323 322 322 320 319 319 320
334 336 337 337 339 340 341 341 342 341 341 339 340 339 340 340 340 339 338 337 336 338 338 338 338 338 337 334 335 335 335 333 333 332 332 332 331 332 332 332 332 332 325 330 330 331 328 329 327 326 330 331 331 331 331 331 331 332 332 332 332 333 334 333 332 330 331 331 332 323 328 331 328 328 327 326 325 322 322 321 321 322 321 319 318
336 334 335 337 338 340 341 341 341 341 340 339 339 338 338 339 339 339 338 337 337 335 337 336 336 337 336 335 334 334 334 333 333 333 333 332 331 331 331 331 331 330 330 329 329 329 328 328 328 328 327 328 329 330 330 329 330 330 330 331 331 332 332 332 331 331 331 331 331 321 326 332 328 327 327 326 324 322 321 322 321 321 320 320 320
334 334 336 337 338 339 340 341 340 340 340 339 339 339 338 338 338 338 337 336 337 336 335 336 335 336 336 335 333 332 332 331 332 332 331 332 331 331 330 331 331 330 330 329 328 327 326 326 326 327 326 327 327 327 328 328 329 330 330 331 331 331 332 331 331 330 331 330 326 319 323 329 330 328 328 327 325 323 321 321 320 321 320 319 321
335 334 336 337 337 338 339 340 339 340 340 339 338 337 338 337 338 338 337 335 335 335 335 335 336 334 334 333 331 332 331 330 331 331 331 331 331 331 331 330 330 329 329 328 327 325 324 325 326 326 325 326 326 326 326 326 327 328 329 329 330 330 330 331 330 331 330 330 330 323 322 327 329 332 327 328 327 324 323 321 321 321 321 320 319
333 334 335 336 337 338 339 339 339 339 339 339 337 337 337 337 338 338 336 333 335 335 335 335 334 333 333 334 333 331 330 331 331 330 331 330 331 331 330 329 329 328 327 326 326 325 324 324 324 324 325 325 325 325 325 325 326 326 326 327 328 328 328 330 330 330 330 330 329 326 320 324 329 330 327 328 328 326 324 323 321 320 321 322 320
334 335 335 336 337 338 338 338 339 339 339 339 338 337 337 337 337 337 337 336 335 335 336 334 334 333 332 333 332 331 330 329 330 330 330 330 331 331 330 330 328 327 326 325 325 324 324 323 324 324 324 324 324 324 323 324 324 325 325 325 326 325 326 327 328 329 330 329 329 329 316 321 326 330 329 327 327 327 325 323 324 323 322 321 321
334 334 335 336 337 338 337 338 339 339 339 338 338 338 337 337 337 337 337 335 335 334 334 334 334 333 333 332 332 332 331 331 330 330 329 330 330 330 329 329 328 326 326 326 324 324 324 323 323 323 323 324 323 323 323 324 324 324 324 324 325 325 325 326 326 328 328 328 329 329 329 317 322 327 330 328 327 327 326 324 324 326 324 323 322
333 333 335 336 337 337 337 338 339 339 338 337 338 338 337 337 337 337 336 337 336 335 333 332 331 332 334 332 332 331 330 330 331 330 329 330 329 328 329 328 327 327 325 325 323 323 322 322 322 323 323 323 323 323 323 322 323 323 323 323 324 323 324 325 325 326 327 328 328 329 328 328 319 320 325 329 328 327 327 326 325 324 324 324 322
333 334 334 335 335 336 337 337 338 339 338 337 338 338 338 337 336 337 337 337 336 335 334 333 332 332 332 332 331 331 330 330 330 330 329 329 329 329 328 328 328 327 325 323 322 322 321 320 320 320 321 321 321 321 321 321 321 322 321 322 322 322 323 323 324 325 325 327 328 328 327 327 328 318 317 320 327 329 327 326 326 325 324 322 322
332 333 334 334 335 336 337 337 337 337 337 338 337 338 338 338 337 337 337 337 337 335 334 334 333 332 331 331 331 331 329 329 329 329 329 328 328 328 327 327 328 327 324 322 321 321 320 319 318 318 316 318 319 320 319 319 319 319 319 320 320 321 322 322 322 323 324 325 326 327 327 328 327 327 327 319 319 321 326 326 327 325 325 325 324
333 333 332 334 334 335 336 335 336 336 336 337 337 337 338 338 337 337 336 336 336 336 336 335 334 332 330 329 329 329 329 329 329 327 327 327 327 326 326 326 327 325 322 321 321 319 319 318 318 316 317 317 318 319 318 318 318 317 318 318 319 319 318 319 321 321 321 323 323 323 325 326 327 328 326 325 317 317 319 324 326 325 325 326 326
332 333 334 334 334 335 336 335 336 336 336 336 337 337 338 338 338 332 336 337 336 335 335 335 334 333 331 329 329 328 328 327 327 327 326 326 326 325 325 325 324 322 321 319 319 318 318 318 317 317 316 316 316 317 317 317 317 317 318 317 318 317 317 318 318 319 320 321 322 322 322 323 325 326 321 324 323 318 316 316 321 326 325 325 324
332 333 333 333 333 334 334 334 334 336 336 335 336 336 337 337 338 338 337 337 336 336 336 336 335 334 331 330 330 329 328 328 326 325 325 324 324 324 324 324 323 321 321 320 318 318 317 315 316 316 317 316 316 316 316 316 316 316 317 316 316 315 315 315 315 316 316 317 319 320 320 321 321 314 322 322 321 320 316 315 319 322 323 325 324
331 332 333 333 333 334 334 334 334 335 335 335 336 336 336 337 337 338 337 337 336 336 336 336 335 335 334 331 331 330 330 329 328 325 324 322 322 322 323 322 322 321 321 319 317 317 315 315 315 316 316 315 314 314 314 313 314 315 314 314 314 313 314 316 316 313 316 317 317 319 320 321 321 321 321 322 323 321 322 319 315 315 314 316 323
328 330 331 332 332 332 333 334 334 334 334 335 336 336 336 336 337 337 337 337 337 337 337 336 336 336 335 334 331 330 328 330 329 327 325 324 323 323 322 322 322 322 321 319 318 318 317 317 316 316 314 313 312 313 313 312 312 312 312 310 310 310 312 312 312 312 313 314 315 317 318 319 319 319 320 320 321 322 322 322 322 322 320 315 320
326 326 327 330 331 331 331 332 333 334 334 335 335 334 334 333 332 334 335 335 337 335 336 336 336 336 336 335 333 332 330 329 328 327 327 327 326 323 323 323 322 320 319 319 318 317 316 314 315 314 310 309 309 310 310 310 310 308 307 307 306 306 308 309 309 309 309 310 312 314 314 316 317 317 317 318 319 319 320 321 321 321 321 318 315
323 325 325 327 329 329 330 329 331 333 333 333 333 332 331 331 332 332 331 333 334 337 336 336 336 336 336 335 334 333 332 330 329 330 328 325 327 326 324 323 320 318 318 319 320 319 318 315 314 311 309 307 307 309 310 309 307 306 306 305 305 306 306 306 307 307 307 309 310 311 312 313 315 315 315 315 316 316 316 317 319 320 320 320 317
317 321 323 325 326 328 328 329 329 330 331 332 333 332 333 332 331 331 333 334 334 333 334 336 335 336 336 336 335 334 333 331 329 329 328 327 325 325 324 323 321 319 319 319 319 317 317 312 312 311 310 308 309 311 309 306 303 303 304 306 309 308 307 307 306 306 307 308 309 310 311 312 312 313 314 313 313 313 313 314 315 316 317 318 318
312 317 321 323 324 326 327 328 329 329 329 331 332 332 333 333 333 332 333 334 337 336 335 335 336 336 336 337 337 336 335 333 332 329 328 327 325 324 323 324 322 321 318 318 319 318 315 313 313 312 311 309 309 310 309 307 305 307 307 305 304 306 312 308 309 308 308 308 308 309 309 309 310 311 312 311 310 310 311 312 312 313 314 315 315
306 309 315 320 322 323 325 326 327 328 328 329 330 332 334 335 335 334 334 334 333 333 335 336 336 336 335 335 335 336 336 334 333 331 329 328 327 326 325 326 326 323 320 319 319 317 316 315 313 311 312 307 306 307 308 308 307 307 303 304 306 305 304 309 311 311 309 309 308 308 308 308 309 309 308 308 309 309 310 311 311 311 311 312 312
306 307 310 314 317 321 323 325 326 326 327 327 329 330 332 331 332 330 333 332 331 331 331 331 330 329 333 335 335 337 336 335 335 334 329 329 330 329 327 327 326 322 319 317 318 316 314 314 312 311 311 310 309 309 308 307 306 308 309 308 304 302 303 308 307 308 312 309 308 308 308 308 308 307 306 307 307 308 309 310 311 311 309 309 310
305 307 310 311 315 317 320 323 324 325 326 326 327 328 328 327 327 326 324 325 325 324 324 326 327 328 329 332 334 335 335 335 335 335 335 330 330 330 329 328 326 323 319 318 319 319 317 315 313 312 310 311 313 312 309 305 305 306 308 311 312 308 309 306 306 305 309 311 311 309 308 307 308 307 307 306 307 307 308 309 310 308 308 307 308
306 305 305 308 312 316 319 320 322 323 325 325 326 326 326 326 326 326 326 325 324 325 328 329 328 329 331 330 331 332 333 332 333 335 335 335 333 332 331 329 328 326 323 320 319 317 316 316 316 314 312 312 311 310 310 308 304 305 307 309 309 309 309 307 306 309 307 310 306 306 306 305 305 305 306 307 307 308 308 308 308 308 307 306 306
305 306 307 309 312 314 317 319 321 322 323 324 324 325 325 325 325 325 325 324 324 324 326 327 329 328 328 328 328 329 330 330 331 332 333 333 333 332 332 331 329 328 324 321 320 319 318 316 314 314 315 315 313 309 310 313 307 306 304 304 305 306 307 309 309 306 305 301 304 304 303 304 303 303 304 305 307 307 306 306 307 307 306 304 305
307 309 309 311 313 315 317 319 320 321 322 323 324 324 325 325 325 324 323 324 325 325 326 326 325 326 325 326 326 327 328 329 330 330 330 332 331 331 331 331 329 329 323 324 323 322 320 319 317 314 314 314 313 312 312 313 310 308 303 302 304 305 306 307 307 306 301 300 301 303 305 305 302 302 302 304 305 304 303 304 305 305 304 304 304
306 308 311 313 313 315 316 318 318 320 321 322 323 324 324 324 324 324 323 323 324 323 323 322 322 323 322 323 324 324 325 325 326 327 328 329 330 330 330 329 329 330 325 326 324 322 321 320 320 316 315 314 313 312 312 312 313 310 310 311 305 304 305 305 304 304 304 303 300 302 306 306 303 303 301 302 301 301 301 303 303 303 303 303 303
307 309 310 313 315 314 314 314 314 315 316 319 320 322 322 323 323 323 322 322 323 322 321 320 321 320 319 321 322 322 322 323 323 324 325 326 327 327 328 328 328 327 325 327 325 324 323 322 322 321 317 315 315 314 311 311 311 311 310 310 310 306 305 305 306 305 304 300 299 298 301 303 303 304 306 303 302 301 300 301 300 301 302 303 302
Wind_Speed
7 9 8 8 7 6 6 6 9 10 9 9 10 8 8 8 9 9 8 7 8 10 11 11 11 11 12 13 13 14 14 13 12 13 13 14 14 15 16 16 16 16 16 16 15 15 15 14 13 14 14 15 16 17 17 17 17 17 17 17 18 17 17 16 15 13 16 17 18 18 18 18 17 17 17 18 17 15 11 11 13 13 12 14 16
11 9 7 8 6 5 6 6 9 10 10 10 10 9 9 9 9 9 8 7 8 9 11 11 12 11 11 13 14 14 14 13 11 12 13 14 14 14 14 14 15 15 15 15 15 14 14 14 14 14 15 16 16 16 16 16 16 17 17 17 17 17 17 16 15 14 15 15 17 17 17 18 17 17 17 17 17 17 13 13 13 12 11 15 16
11 9 7 8 5 5 4 7 10 10 10 10 8 9 9 8 7 7 7 7 8 10 12 11 11 12 12 13 13 15 14 13 12 12 12 12 12 13 16 16 14 13 15 15 15 14 13 14 15 14 15 15 15 15 16 16 16 16 17 17 16 16 16 15 15 14 11 14 16 16 15 17 16 17 17 17 17 15 11 12 13 14 12 16 16
11 8 8 7 3 5 5 7 10 10 10 9 8 8 8 8 8 7 8 7 10 12 12 11 11 12 13 12 12 15 14 13 12 12 12 13 13 13 13 13 13 16 16 15 14 15 14 14 15 15 14 15 15 15 16 16 16 16 16 16 15 15 15 15 14 12 10 7 5 10 10 11 13 16 17 17 18 19 18 19 18 18 17 16 16
10 8 7 8 7 5 6 7 10 11 11 9 8 8 8 7 7 9 9 9 12 14 11 11 12 13 12 13 15 14 13 12 12 12 12 13 14 14 13 12 14 16 16 14 14 14 14 14 14 14 15 14 14 15 15 15 15 15 15 15 15 14 14 14 12 11 9 9 5 9 10 11 11 15 17 18 19 17 18 19 19 18 18 19 20
9 8 7 6 6 7 4 9 10 10 10 10 9 8 7 8 7 9 10 10 9 12 11 11 12 12 11 13 13 13 13 13 12 11 12 13 13 13 13 12 14 14 14 15 15 14 15 14 14 14 14 13 13 13 14 14 15 15 15 14 14 14 13 12 11 8 8 5 7 10 11 11 11 11 16 19 19 16 17 18 18 17 18 19 20
10 6 7 7 6 7 4 8 11 11 10 9 8 8 8 7 7 8 9 10 10 12 11 10 12 12 12 13 14 13 14 13 12 11 11 12 13 13 11 14 14 13 14 15 15 14 14 14 14 14 14 14 13 13 13 13 14 14 14 15 14 14 13 11 10 6 3 7 8 9 9 11 11 9 16 16 18 19 18 18 17 18 18 17 18
7 5 6 6 7 8 5 6 11 11 10 9 9 8 8 8 7 7 10 9 9 11 10 11 11 13 13 13 13 13 12 11 11 11 11 12 11 12 13 12 13 15 14 15 15 14 14 14 14 14 14 14 13 13 13 14 14 15 15 15 14 13 13 11 10 7 6 9 8 8 9 10 11 10 14 16 17 18 19 18 17 17 17 15 10
8 7 6 6 7 9 5 6 10 11 10 9 9 8 9 8 7 7 9 9 10 10 10 11 11 12 13 13 13 13 12 11 11 11 11 12 12 12 12 12 13 12 13 14 13 14 13 13 13 13 13 13 14 14 14 14 14 14 15 15 14 13 12 10 5 4 8 8 9 9 10 10 10 11 14 16 15 15 14 14 16 17 16 13 13
8 7 6 7 7 7 4 5 9 10 10 9 9 8 8 8 7 9 9 8 7 8 11 11 11 12 12 12 13 13 12 12 11 10 11 10 11 11 10 11 12 11 12 13 13 13 13 13 12 12 12 13 13 13 13 14 14 15 15 14 14 12 10 7 4 8 8 9 10 10 9 10 10 9 13 14 17 18 17 16 14 12 11 12 15
9 7 6 6 9 5 6 8 8 9 9 9 9 9 8 7 8 7 9 9 7 8 8 9 12 12 12 12 12 13 13 12 10 10 11 11 10 13 11 10 10 12 12 12 12 12 13 13 13 12 12 12 12 13 12 13 14 15 14 13 12 11 8 2 6 8 8 8 9 9 9 9 9 8 12 14 16 17 13 13 13 13 14 14 14
10 8 7 6 9 4 7 6 8 9 9 9 9 9 8 7 7 7 7 8 7 9 9 10 9 9 11 12 12 13 13 11 10 10 10 10 13 10 10 10 10 11 12 13 12 12 12 13 12 12 12 13 13 13 12 13 14 14 13 13 11 10 8 6 7 7 7 8 7 6 7 8 9 10 12 12 13 14 12 11 12 13 14 13 13
9 8 7 8 10 7 6 5 8 9 9 9 9 9 8 8 7 6 6 7 7 7 8 9 10 10 10 13 12 12 12 11 10 9 8 9 12 11 9 10 10 9 10 10 10 11 11 12 12 11 12 12 12 12 12 13 14 13 13 12 11 9 7 3 8 8 7 7 7 7 7 7 8 10 10 11 11 12 12 13 14 13 12 13 13
9 8 7 8 7 8 5 4 7 7 7 7 8 8 8 7 7 6 6 7 6 7 8 8 7 9 9 9 10 11 10 11 9 8 7 9 13 10 9 10 10 10 11 12 12 11 12 12 12 12 11 11 12 12 12 13 13 12 11 11 9 7 6 7 8 8 7 7 7 7 7 7 8 10 10 12 13 13 13 12 11 12 13 13 13
9 8 8 8 8 9 7 5 6 5 6 7 6 7 7 7 8 7 7 7 6 7 6 7 9 9 9 10 10 10 10 11 9 7 7 8 13 12 9 9 9 9 10 11 11 11 11 12 11 11 11 10 11 12 12 12 12 11 11 9 7 6 1 7 6 7 7 7 6 7 7 7 8 10 12 13 13 12 11 12 15 12 12 12 11
9 8 8 8 8 8 8 6 6 5 6 6 6 5 5 5 4 6 7 7 7 7 6 6 9 9 11 11 10 10 10 10 9 8 5 7 12 11 9 9 8 8 9 10 10 10 11 11 10 10 10 9 10 11 11 11 11 11 9 8 6 6 6 3 6 6 6 6 6 6 7 7 9 10 10 10 11 11 9 9 12 12 11 11 11
8 7 7 7 8 8 8 9 7 5 5 6 5 5 4 4 4 5 5 6 7 7 6 5 7 8 9 9 8 9 9 9 9 8 6 6 10 10 9 8 7 8 9 9 9 9 10 10 9 8 9 9 9 9 10 11 11 9 8 7 6 6 5 1 6 5 5 5 4 5 5 7 10 11 11 10 9 9 12 11 10 10 9 9 10
9 8 8 7 7 8 7 8 9 8 7 5 6 5 5 4 5 5 5 5 6 6 8 9 9 8 9 9 9 8 7 6 6 7 7 7 6 8 10 8 7 7 9 9 10 9 9 8 8 8 8 8 8 8 9 9 9 8 7 7 5 6 4 2 5 5 6 5 5 5 6 7 8 8 8 8 7 10 10 9 9 9 9 9 9
8 9 9 8 8 7 7 7 9 8 7 6 6 6 5 5 5 5 5 5 6 8 8 8 8 9 9 9 9 9 8 8 9 8 6 7 8 9 9 9 8 7 8 8 8 8 8 7 7 8 7 7 8 8 7 8 8 7 6 5 6 5 4 4 4 5 6 4 4 4 6 6 7 8 7 7 8 8 8 7 7 7 9 9 8
7 8 9 8 8 8 7 7 7 7 7 5 6 7 6 6 6 5 6 6 7 8 8 8 8 8 8 8 9 8 8 7 8 7 6 8 8 8 8 8 8 7 7 6 7 7 7 7 7 7 7 7 7 7 7 8 7 7 6 4 5 6 4 3 5 5 4 4 2 4 5 6 12 9 8 9 9 7 7 7 5 5 7 8 7
6 9 9 9 9 9 9 7 8 8 7 6 5 6 7 7 5 5 6 6 7 8 9 9 8 7 7 7 7 5 6 6 6 6 6 6 6 6 7 7 7 7 5 6 6 6 6 6 6 6 7 8 8 8 9 8 8 8 6 4 3 5 2 4 4 3 3 3 2 4 5 9 10 11 9 6 5 8 8 6 6 5 6 6 8
9 9 10 10 9 9 9 9 7 9 8 7 5 5 5 6 6 6 6 6 6 7 6 5 6 5 5 5 4 4 4 4 4 6 5 6 7 7 7 7 7 6 5 4 5 6 6 6 5 6 7 8 5 5 5 7 7 6 4 4 5 2 3 5 5 3 3 3 2 5 4 5 6 4 5 6 9 7 6 3 5 5 6 5 3
10 9 9 11 10 9 9 10 9 9 9 8 6 6 7 6 6 5 4 5 6 6 5 5 5 5 5 5 4 4 3 3 3 3 3 8 8 8 8 7 7 7 6 5 5 5 5 6 6 6 6 2 2 3 3 3 3 2 2 3 2 2 3 4 3 3 3 3 3 4 5 6 5 7 7 7 5 7 7 5 3 5 5 4 5
11 10 11 10 11 10 11 10 10 10 9 8 6 6 6 7 6 5 5 5 5 5 4 5 4 5 5 5 3 3 4 3 7 6 5 5 6 9 9 9 8 7 6 5 6 8 8 6 5 4 4 2 2 2 2 2 3 3 2 2 2 2 2 3 3 3 3 1 3 6 3 4 8 5 7 6 8 6 7 6 5 3 1 2 5
9 9 9 10 12 11 10 11 10 10 10 8 7 7 7 6 6 6 6 5 5 4 4 4 4 5 5 4 3 4 4 3 5 5 5 4 5 5 5 4 4 4 3 3 4 3 4 4 4 3 2 2 2 2 2 2 2 3 2 2 3 3 3 3 3 3 3 4 2 3 5 5 6 6 6 7 7 5 5 3 6 8 6 3 1
8 9 11 11 12 11 11 9 10 10 10 9 8 7 7 7 7 6 6 6 5 5 4 4 4 5 4 3 4 4 4 4 4 4 4 4 4 4 4 4 4 4 4 3 3 3 3 3 3 2 2 2 1 1 1 1 2 2 2 3 3 4 4 4 2 3 4 5 5 2 6 4 7 4 5 6 8 8 6 6 6 6 4 6 7
10 10 10 10 10 11 11 10 10 9 10 10 8 7 8 7 7 7 7 6 6 6 6 4 4 5 5 4 5 5 4 4 4 5 5 4 4 4 4 4 4 4 4 3 3 3 3 3 3 2 2 2 2 1 1 1 1 2 2 3 3 4 4 4 4 3 5 5 4 1 6 7 8 9 8 7 7 8 7 6 5 6 6 4 8
10 11 10 10 9 12 11 10 10 10 9 10 9 8 8 8 8 7 7 6 6 6 6 6 3 5 5 5 5 4 5 4 5 5 5 5 5 4 4 4 4 4 4 3 3 3 3 3 2 2 3 2 2 2 2 2 2 2 3 3 3 4 5 5 6 4 4 6 6 5 6 10 9 7 9 10 9 8 7 8 8 9 8 7 7
12 12 11 11 12 11 12 12 11 11 10 10 9 8 8 8 8 8 9 7 7 7 6 6 6 4 5 5 5 5 4 5 5 5 5 5 5 5 4 5 4 4 4 4 3 4 4 3 3 3 3 3 3 3 3 2 3 3 3 3 4 4 4 5 6 5 4 6 6 6 2 5 7 6 10 12 12 10 10 12 9 7 8 10 9
13 12 12 11 11 12 13 14 13 12 11 10 9 9 9 9 9 9 8 8 9 8 6 6 7 6 5 6 6 5 5 5 5 5 5 5 5 5 5 4 4 4 4 4 4 3 4 3 3 3 3 3 3 2 3 3 3 3 3 3 4 4 4 5 6 6 6 6 7 6 3 4 5 6 8 11 12 12 11 10 13 11 10 10 10
12 13 12 11 10 11 12 12 12 10 11 11 10 10 9 10 10 9 7 9 9 8 8 8 7 7 5 5 6 6 5 5 5 5 5 5 5 5 5 4 4 4 4 4 3 4 3 3 4 4 4 4 4 2 4 3 4 4 3 4 4 4 4 4 5 6 7 7 7 7 6 4 6 5 7 10 13 15 13 12 12 16 13 13 13
13 13 12 11 11 13 12 13 13 11 11 12 10 10 11 10 9 8 9 9 9 9 8 8 8 8 7 5 5 6 6 5 5 5 6 5 5 5 5 5 5 4 4 4 3 3 3 3 2 2 3 3 3 3 4 4 4 4 4 4 3 4 4 4 5 5 7 8 8 9 8 6 6 7 8 9 12 14 15 15 14 14 16 16 13
11 13 13 12 13 13 11 13 13 12 12 13 12 12 11 10 10 10 9 9 9 9 9 8 8 8 8 8 7 6 6 5 5 6 6 5 5 5 5 5 5 4 4 4 4 4 4 4 4 3 4 4 4 4 3 4 5 4 4 4 3 4 4 4 5 5 6 7 8 9 9 9 9 7 7 9 11 12 16 16 15 15 15 13 14
11 10 13 14 12 10 10 10 12 13 13 13 11 11 11 11 9 10 9 8 9 10 10 9 8 8 8 9 9 9 6 6 5 5 6 6 6 6 6 5 5 5 5 5 5 5 5 5 5 5 5 5 6 6 5 6 5 4 5 4 4 5 4 5 5 5 5 6 7 8 9 10 9 7 6 8 12 10 12 17 18 17 17 16 16
10 10 13 13 13 11 10 10 9 13 10 11 12 13 11 10 10 11 10 10 9 8 9 10 9 8 8 8 9 8 7 6 5 5 6 6 6 6 6 5 4 5 5 5 5 5 6 6 6 6 6 6 7 6 6 6 6 6 6 5 6 5 5 6 5 6 6 6 6 5 6 6 9 6 5 6 9 12 10 11 18 18 18 18 19
13 11 11 12 13 13 12 12 11 14 15 14 14 13 12 10 8 10 11 12 10 10 10 10 9 8 8 8 10 10 8 7 6 6 6 6 6 6 5 4 5 4 4 5 5 6 6 6 6 7 7 8 8 8 7 7 7 7 6 6 6 6 6 6 7 7 7 6 6 7 7 7 7 6 6 4 5 6 10 9 11 14 20 21 21
11 10 11 12 13 14 13 14 14 14 15 15 15 14 12 11 11 9 11 12 11 10 9 10 9 9 8 8 9 10 9 9 8 8 7 6 6 6 5 5 4 5 5 6 6 7 6 5 6 7 8 7 7 9 7 7 7 7 6 6 6 5 6 6 6 6 5 7 8 8 8 8 8 8 7 6 6 6 10 13 12 13 13 18 19
10 12 11 11 12 12 13 13 13 14 13 13 14 13 12 11 9 9 8 10 11 7 9 10 10 9 9 9 11 10 10 11 10 9 8 7 7 6 6 5 5 6 6 6 6 6 6 6 8 8 8 7 6 6 7 5 5 4 5 6 6 5 6 6 6 6 6 7 8 9 9 8 8 8 8 8 8 8 8 12 16 16 16 14 16
9 11 12 12 11 11 11 12 13 14 13 13 12 12 13 11 9 9 10 10 7 8 8 9 10 9 9 11 9 8 8 11 11 11 9 8 8 8 8 8 8 8 7 6 6 7 8 8 9 8 6 6 5 4 4 3 3 4 5 5 5 7 6 5 5 6 6 7 8 8 7 8 8 8 8 8 8 9 10 9 9 10 12 17 14
10 10 11 11 13 12 12 12 13 14 12 12 11 11 10 10 11 11 13 11 8 7 8 10 10 9 9 9 8 7 6 6 5 5 7 7 7 7 9 9 8 6 7 8 8 9 11 10 11 9 4 3 4 5 4 6 5 4 5 5 6 7 9 7 7 7 6 7 8 8 9 8 8 8 9 8 9 8 8 9 9 9 10 13 18
9 11 11 12 12 12 12 14 12 12 12 11 12 11 11 11 11 12 13 10 10 8 8 9 8 8 10 12 12 12 12 12 13 12 11 11 10 10 10 8 8 7 8 10 10 10 8 7 6 5 4 5 6 7 5 3 4 6 5 7 8 8 9 9 11 9 10 9 8 9 9 9 9 9 8 8 9 8 8 8 9 9 10 9 13
8 9 12 12 11 12 14 12 11 12 13 14 12 11 12 11 10 9 9 9 10 10 10 8 9 8 9 9 9 10 10 10 7 7 6 6 6 6 7 8 9 10 11 10 8 8 6 5 6 7 8 9 9 8 5 5 4 7 7 6 7 7 10 11 11 12 12 10 10 10 10 10 10 9 8 8 8 8 8 9 8 9 9 9 10
5 9 10 10 11 11 12 11 10 11 12 12 12 12 11 10 10 8 9 9 9 10 10 8 6 7 10 11 12 12 12 12 11 10 8 8 8 7 6 7 9 8 8 10 10 10 9 10 11 10 7 8 8 5 8 10 8 5 5 4 9 9 7 8 10 13 13 13 11 11 11 11 13 10 8 7 7 8 8 9 10 10 10 10 9
5 5 6 9 8 9 9 10 10 10 10 11 10 12 11 10 11 10 10 9 7 3 6 8 10 11 10 6 7 7 7 9 13 13 12 12 10 9 9 10 10 10 9 9 9 10 9 9 9 9 8 5 6 8 10 10 9 5 5 8 6 2 10 9 8 9 13 14 12 13 11 12 13 10 7 9 9 8 8 9 11 10 10 10 8
4 5 6 6 5 8 8 9 8 9 9 9 9 10 9 7 4 1 3 3 2 6 7 6 5 4 7 10 11 10 9 8 7 8 7 9 11 11 10 9 7 6 7 7 7 9 10 9 9 8 10 9 8 8 8 10 11 10 9 3 3 5 9 8 5 9 8 8 12 14 11 12 12 9 9 11 10 9 9 10 11 10 10 10 8
2 2 3 5 5 5 6 7 6 7 8 8 9 9 9 8 6 5 5 6 7 5 8 10 8 8 9 6 8 10 11 11 11 11 10 9 10 9 9 9 9 8 8 10 12 10 9 10 12 12 13 13 10 8 6 7 9 12 13 12 8 7 3 2 1 8 4 8 6 9 11 12 12 11 10 11 12 12 11 11 10 10 12 12 11
2 1 1 2 4 4 4 5 5 5 5 6 8 8 8 8 10 10 8 8 10 9 8 9 10 9 8 9 9 8 8 8 9 10 12 10 11 12 12 11 11 9 7 7 6 6 7 10 10 11 11 11 11 9 9 7 7 11 12 14 12 8 8 5 11 10 17 5 5 6 8 9 9 11 12 12 13 12 11 11 11 10 10 12 11
2 1 2 2 3 3 3 4 3 3 4 6 7 8 7 8 8 9 9 10 11 11 9 9 9 8 9 9 9 9 8 8 9 9 10 9 8 10 11 12 11 12 11 10 11 12 11 9 11 10 9 10 11 11 11 11 10 8 9 10 12 13 12 12 12 10 11 11 11 5 7 8 7 9 11 12 13 12 11 9 9 11 9 10 11
3 3 2 2 3 3 4 3 3 3 4 7 7 8 8 8 9 9 10 10 10 10 8 2 4 7 9 9 9 10 10 9 9 11 11 11 9 8 8 9 9 8 7 7 7 7 10 10 10 10 11 9 8 9 9 10 8 9 6 9 11 12 12 13 11 8 8 10 16 12 13 7 9 8 8 11 11 8 9 10 8 11 9 8 11
4 3 3 3 3 3 4 5 4 4 4 7 8 9 9 8 8 9 9 8 7 8 6 8 7 6 8 9 9 8 7 7 9 10 11 12 11 11 9 10 10 10 9 10 11 13 13 12 11 11 10 12 10 11 12 11 9 9 11 9 8 7 9 8 10 11 11 12 15 12 8 9 10 7 10 10 10 9 9 11 11 11 9 10 10
5 5 5 5 5 5 5 6 4 3 2 3 4 6 6 6 6 7 7 8 8 7 7 6 7 7 7 7 8 8 8 9 8 8 9 10 11 11 11 11 10 9 7 7 8 8 8 10 11 11 12 13 10 11 10 11 9 8 9 11 10 8 10 10 11 10 10 8 9 12 13 13 13 14 9 9 8 10 9 10 11 9 11 13 11
Wind_Direction
152 145 142 131 161 151 140 133 124 111 107 107 99 97 102 102 99 96 94 103 104 106 98 94 94 99 101 100 94 88 88 90 94 96 93 89 86 83 81 79 78 77 76 76 76 76 78 77 78 80 78 76 76 75 74 71 66 63 58 56 55 52 50 50 40 62 83 80 81 83 82 81 79 78 77 76 74 70 66 72 76 75 77 77 80
154 146 146 145 158 148 138 130 118 110 108 107 114 120 116 111 108 111 115 106 101 107 101 98 96 89 99 101 97 91 84 81 82 84 89 92 92 92 90 87 82 77 75 75 77 80 81 82 81 83 80 77 76 75 76 74 68 66 60 59 57 56 55 53 49 59 73 80 84 81 80 80 79 79 78 79 79 75 65 61 67 78 78 78 72
144 144 143 139 165 137 125 127 108 106 104 103 104 110 109 109 115 113 108 113 119 100 98 99 97 104 101 95 98 92 88 85 86 86 88 88 85 80 77 79 84 88 86 82 78 80 85 82 80 83 82 79 78 78 76 72 71 68 66 63 60 60 61 55 54 64 53 78 86 85 83 77 79 82 82 82 84 82 80 88 91 87 87 86 81
142 145 144 130 181 138 132 118 107 103 100 96 106 113 112 116 114 122 125 120 102 105 101 100 101 99 99 99 97 95 92 87 85 89 89 88 88 87 86 84 83 81 81 81 86 84 80 82 86 84 85 82 79 81 79 74 73 72 70 65 61 61 62 59 56 51 46 31 99 95 81 85 80 78 81 81 75 66 62 62 64 72 75 76 83
142 141 142 149 151 143 125 127 114 114 108 114 116 120 123 121 120 117 109 94 99 94 96 101 99 97 107 103 93 89 89 90 88 87 89 88 86 86 88 93 88 86 86 85 85 85 87 89 88 91 89 85 82 81 83 77 76 74 71 68 66 64 62 63 61 59 45 46 68 102 96 88 90 83 87 85 76 69 69 70 70 73 76 77 75
142 141 142 143 142 133 129 132 118 115 117 123 122 125 127 120 117 111 111 108 111 94 97 95 98 105 102 99 96 92 86 81 81 86 91 92 92 90 85 85 94 93 91 91 86 86 89 88 92 93 91 86 87 83 83 86 81 75 72 71 71 68 65 66 63 55 76 85 84 80 85 89 88 85 85 85 84 80 79 78 76 76 76 75 75
141 140 142 146 150 138 150 135 124 117 120 119 122 118 115 113 110 111 107 112 114 105 98 98 102 102 94 91 93 93 94 93 93 96 99 97 92 93 96 87 90 98 98 95 91 91 90 93 92 90 87 84 83 86 87 88 88 83 74 72 70 69 69 62 54 44 88 99 81 82 80 83 87 87 81 85 87 88 82 78 76 78 77 78 76
142 143 149 157 154 137 154 140 123 120 121 120 119 113 106 97 83 101 114 110 106 94 101 103 103 101 100 96 97 95 90 92 96 102 101 100 98 89 86 95 96 94 99 95 93 91 94 96 97 95 90 90 89 93 93 91 88 84 78 73 68 66 64 62 58 39 59 84 85 88 90 86 81 85 83 87 88 81 78 77 78 78 75 69 71
152 157 161 160 140 121 148 141 128 126 124 122 114 109 104 101 102 97 101 105 111 111 104 98 98 100 102 101 99 96 92 94 96 101 106 102 102 100 97 94 95 101 97 99 101 100 97 94 90 91 93 94 96 95 100 96 91 88 83 76 72 67 63 54 47 135 90 85 88 94 93 90 90 81 77 79 77 77 80 87 90 81 71 66 72
158 160 164 164 140 126 152 147 126 125 126 122 113 110 107 107 111 107 109 113 112 118 114 111 104 99 94 98 99 97 96 97 102 107 102 101 97 101 101 97 109 106 100 95 95 97 94 94 94 93 95 96 96 95 96 98 98 96 91 84 82 77 71 68 66 68 86 85 86 86 75 82 85 80 81 80 80 80 75 62 66 72 78 78 77
161 160 166 158 143 132 160 141 125 128 125 121 121 118 118 117 117 123 123 126 127 113 107 109 106 103 101 99 101 99 99 99 102 106 103 103 97 79 87 95 98 101 105 103 98 95 95 95 100 101 99 100 99 100 100 101 98 94 89 86 84 77 63 46 95 83 80 91 94 94 93 102 93 93 87 84 84 84 78 79 81 81 78 76 77
162 161 168 150 134 137 157 141 134 131 130 125 123 125 126 127 123 125 127 124 128 115 110 105 98 103 98 94 96 102 101 100 101 103 113 108 92 100 103 100 99 97 94 94 101 99 95 95 97 98 100 101 98 98 99 98 99 94 88 85 79 72 55 48 92 96 94 88 78 76 90 90 93 93 95 93 91 87 89 91 90 89 84 80 77
163 162 162 154 159 139 168 144 137 140 138 134 130 128 129 128 125 124 122 120 113 102 105 102 105 100 101 100 99 102 102 103 103 104 103 99 92 87 90 95 100 98 100 99 90 88 95 97 95 92 90 91 95 96 98 97 95 89 84 81 79 72 42 64 101 100 98 98 97 89 85 84 82 88 89 88 89 90 88 89 88 88 86 82 82
162 161 165 163 150 145 146 143 140 140 134 130 131 133 132 129 128 122 115 111 106 102 104 107 96 103 102 103 102 105 106 104 101 101 95 99 102 100 96 85 78 81 84 89 95 98 97 100 99 98 98 95 97 98 95 95 90 87 84 80 73 71 98 87 97 100 100 91 87 91 98 97 97 100 95 93 94 94 93 92 92 86 85 84 85
160 169 167 165 155 158 147 143 138 138 127 125 127 135 138 137 138 138 128 127 115 98 96 107 114 109 107 102 108 108 109 106 102 97 100 97 98 92 88 89 93 95 98 100 102 100 99 97 98 98 99 103 98 97 98 98 94 92 89 80 65 37 20 107 102 103 98 100 96 89 83 91 87 91 95 98 95 92 89 92 88 89 91 88 90
164 171 166 169 161 158 163 135 132 134 131 122 127 127 134 138 133 131 127 123 120 108 93 99 108 112 111 115 116 115 108 103 100 101 92 95 103 103 101 94 94 104 98 96 97 94 95 97 100 102 103 102 102 101 101 101 98 96 93 79 67 57 16 105 116 118 113 108 104 101 98 95 103 104 98 97 93 98 99 92 88 93 94 103 107
163 169 172 168 161 167 167 166 135 129 121 117 119 119 113 102 101 98 102 99 111 112 92 74 109 108 106 117 103 100 105 109 103 99 112 74 108 113 111 100 100 107 116 114 108 104 99 100 102 104 107 110 109 103 106 106 104 99 87 83 75 79 43 21 123 118 109 94 102 105 108 107 95 105 108 108 107 92 85 96 98 94 98 93 85
167 174 173 172 174 176 170 171 151 168 156 134 115 110 115 102 94 92 90 96 95 85 63 57 58 70 86 96 97 94 100 96 105 108 78 50 52 118 125 121 113 100 89 86 95 96 99 103 105 108 112 109 112 113 103 107 105 98 89 88 86 93 84 285 124 119 110 119 105 109 110 115 130 118 114 109 96 105 106 97 95 109 107 95 98
172 182 182 176 177 178 177 175 168 172 160 170 171 130 117 111 109 109 103 97 97 85 80 73 70 77 82 82 82 80 74 78 87 92 80 49 59 81 92 94 95 92 92 95 100 101 106 108 112 110 111 113 114 119 105 96 94 89 83 78 107 101 133 169 130 118 131 123 115 115 107 126 104 91 85 97 116 100 88 100 117 125 114 112 100
170 185 192 188 178 182 185 180 179 178 169 174 176 167 131 127 125 125 116 108 105 102 98 91 87 87 87 97 101 108 107 99 98 106 86 72 59 88 92 103 102 97 100 101 107 106 110 111 113 119 114 116 112 102 82 77 72 61 59 80 111 156 176 137 137 135 124 107 94 107 134 133 117 119 116 106 97 104 103 98 106 104 102 104 109
176 190 197 190 183 188 193 185 184 183 176 178 184 178 136 134 138 119 113 110 110 108 107 110 112 108 117 114 134 142 138 133 145 128 138 91 74 81 100 94 91 76 76 101 104 116 117 118 122 122 119 106 91 72 57 56 55 46 33 33 259 215 158 140 139 135 115 118 116 117 112 127 126 129 128 134 121 108 101 121 122 91 92 104 121
185 188 197 191 189 195 193 196 187 185 187 183 187 188 165 199 177 170 168 142 122 129 148 147 139 134 127 156 169 160 155 153 131 141 140 128 96 77 84 94 86 77 68 102 120 121 119 116 113 126 128 119 139 133 105 70 51 45 41 322 259 209 150 150 142 135 135 130 145 123 154 122 150 134 129 122 124 131 126 134 115 125 120 110 91
188 190 194 193 193 193 195 197 196 190 192 190 189 190 187 195 186 177 164 184 162 178 168 160 170 163 169 177 179 163 162 156 145 114 114 71 90 85 87 87 83 78 70 66 103 115 124 112 128 118 99 133 171 126 134 147 125 126 206 224 216 207 181 173 171 160 164 151 166 113 142 148 152 137 134 131 114 95 120 137 144 118 133 162 132
189 192 190 194 195 196 194 197 198 193 195 195 191 190 193 195 192 185 184 186 181 190 184 182 174 173 176 187 180 149 162 144 83 108 122 153 111 90 87 85 82 71 94 109 78 59 83 82 87 118 146 171 141 144 142 157 162 176 182 207 209 197 224 212 217 194 194 76 155 1 202 186 150 152 149 141 136 144 136 147 127 112 349 145 134
194 190 194 195 195 197 196 196 195 195 196 197 194 194 193 199 194 193 194 193 194 192 191 189 180 179 183 190 166 152 173 155 161 160 187 166 165 159 155 171 165 154 173 172 183 157 199 165 158 197 165 154 165 153 174 173 175 188 198 207 208 215 227 225 231 210 187 164 160 349 286 210 177 189 167 160 154 161 177 166 167 156 144 155 113
193 195 197 196 198 199 196 197 193 196 198 199 199 192 197 199 201 199 198 199 198 200 198 194 184 188 192 183 166 172 180 173 171 177 180 177 182 188 185 181 178 180 192 196 186 186 200 181 174 186 176 178 161 174 201 211 193 205 205 205 224 224 232 223 232 235 197 192 163 240 283 216 171 190 196 183 164 175 185 175 215 168 171 159 162
196 203 197 200 200 201 201 198 198 196 200 203 199 195 201 204 205 204 203 202 200 205 202 203 196 186 193 182 189 187 189 184 181 184 185 189 193 193 195 187 187 190 193 193 182 186 205 189 191 186 176 180 176 177 192 213 236 218 210 207 227 234 237 228 219 236 223 217 163 200 279 267 199 183 186 198 188 182 185 206 211 200 190 197 167
200 200 199 201 200 204 203 201 201 199 198 203 202 203 204 206 207 197 208 204 206 207 212 206 196 194 195 196 203 195 193 193 189 190 192 198 200 199 198 196 199 197 194 202 188 196 199 202 197 180 187 188 194 198 198 207 209 227 219 220 221 234 240 240 231 234 249 235 200 191 257 235 220 226 193 194 192 186 200 204 196 217 178 198 222
205 203 203 203 202 204 199 204 203 202 203 203 207 204 208 210 206 205 212 201 211 214 211 214 211 207 193 199 201 201 199 199 195 196 196 202 199 199 201 207 202 199 194 203 200 198 201 205 201 202 206 206 198 204 208 213 225 221 239 225 231 239 247 246 243 231 244 244 234 197 222 274 240 228 199 201 211 208 192 189 191 217 200 183 201
210 207 207 207 203 204 204 204 205 202 204 202 204 205 208 212 212 209 210 205 216 218 212 213 218 208 200 198 202 212 207 204 198 200 200 202 201 201 209 209 207 201 201 208 203 208 205 202 207 208 210 216 218 208 218 213 227 234 239 242 237 246 244 247 250 242 233 245 243 224 166 263 246 217 220 225 208 218 211 215 202 200 216 208 212
212 214 213 212 206 202 207 207 205 205 206 207 206 204 206 212 212 210 206 211 213 217 215 221 221 218 209 189 198 212 212 210 206 201 205 204 205 206 213 209 210 204 206 212 195 213 214 216 211 217 217 221 226 204 227 229 226 229 230 243 246 249 249 249 250 250 250 243 246 248 206 210 260 248 232 223 226 225 219 217 214 205 209 209 201
214 215 215 214 211 212 211 211 210 204 207 210 208 210 209 211 213 212 209 210 209 214 217 218 219 221 216 182 205 206 215 213 212 205 209 206 210 211 212 210 214 202 205 209 196 206 218 212 200 239 243 236 234 222 226 242 236 233 227 233 242 249 252 247 245 243 248 252 248 247 243 221 220 249 255 246 235 231 229 227 227 226 209 212 219
219 219 216 214 215 211 213 215 213 210 209 214 214 215 214 212 212 215 214 209 210 214 217 217 218 219 220 214 212 214 210 215 210 210 209 215 216 210 213 213 214 203 199 191 188 198 208 209 201 204 225 234 237 230 215 244 245 236 231 230 236 237 245 252 247 244 241 243 250 248 245 237 232 228 256 265 260 247 234 231 225 223 216 208 211
213 216 216 216 212 214 211 217 216 215 214 217 218 217 218 217 214 217 216 207 213 215 216 218 218 219 217 215 217 220 218 215 216 209 212 221 218 215 218 213 211 194 192 184 202 207 213 211 209 200 212 222 225 229 221 225 229 227 230 221 227 236 237 238 242 245 245 243 247 250 251 245 237 225 229 242 259 265 254 234 223 224 217 209 205
212 212 213 213 210 210 209 215 206 218 211 219 220 224 220 215 216 222 221 216 214 213 216 219 217 213 211 216 212 218 217 220 216 218 216 224 222 220 215 219 201 188 190 199 206 207 216 214 206 211 211 219 229 225 225 232 227 223 225 215 220 220 223 231 230 233 237 242 238 241 249 252 245 232 219 235 244 251 258 269 240 227 222 215 206
216 215 213 215 216 214 211 216 208 217 218 219 222 223 225 222 215 217 221 220 218 218 218 216 212 207 206 209 212 219 221 216 217 221 229 224 227 225 218 210 180 182 198 197 209 217 219 224 218 215 216 219 221 224 219 227 226 228 220 219 223 214 221 218 219 226 232 232 231 231 232 237 244 238 226 227 248 257 264 268 273 242 224 229 233
216 219 216 215 221 219 216 219 218 214 220 222 223 226 226 227 226 217 217 213 217 219 222 225 217 214 204 205 213 214 207 208 205 206 223 222 225 230 225 204 183 196 201 200 204 214 213 214 229 227 234 234 220 228 222 224 230 232 230 227 229 229 232 227 217 223 225 230 232 229 228 232 234 240 236 228 225 236 247 246 249 259 249 240 238
217 221 221 220 221 222 222 222 223 221 221 222 223 224 227 228 231 230 223 219 213 209 215 220 220 217 215 213 215 201 206 207 204 200 203 203 209 216 218 200 198 209 212 206 213 215 218 214 228 226 224 233 233 229 233 234 241 239 243 246 244 241 249 250 241 232 234 235 236 237 234 233 231 226 231 232 226 225 227 229 233 245 246 249 245
218 216 220 224 225 225 225 219 220 223 223 225 224 224 226 228 230 233 233 229 218 215 208 212 213 208 213 213 200 193 200 209 208 202 202 205 210 211 212 202 199 211 214 211 214 221 227 227 232 234 218 228 241 246 247 242 243 250 252 255 265 261 257 252 257 252 246 245 246 247 245 237 234 228 229 230 231 227 224 227 225 226 234 235 246
218 216 216 216 223 225 225 229 223 224 224 225 224 224 224 226 227 230 234 231 224 213 211 213 215 221 220 216 212 211 210 212 204 197 213 217 213 208 212 207 201 192 206 215 212 212 211 213 222 226 207 223 261 258 249 245 249 252 258 257 250 257 257 254 251 249 252 249 246 246 243 241 238 233 229 231 233 231 227 225 226 229 230 231 234
216 214 211 214 214 217 220 226 224 222 221 221 222 221 220 222 226 233 235 234 230 224 221 218 216 209 204 212 208 207 198 199 206 208 208 213 214 209 204 198 189 187 212 223 220 222 214 201 210 204 201 220 235 229 221 197 257 268 241 245 252 236 240 237 243 241 240 240 240 242 242 241 238 235 228 226 233 230 231 233 233 234 231 227 230
211 208 214 213 213 213 218 221 222 223 224 224 224 221 224 223 223 223 229 232 229 222 224 215 218 216 227 229 219 215 215 212 209 217 219 214 211 216 205 205 201 204 209 216 211 211 195 193 206 222 213 219 234 210 183 148 231 234 257 268 254 240 228 228 231 236 237 235 234 236 236 236 236 235 232 228 228 227 229 231 234 236 236 232 231
209 205 212 210 210 210 216 217 217 221 225 227 227 226 224 226 228 235 229 235 235 239 235 227 219 230 218 213 220 224 218 220 215 211 220 223 224 224 222 218 210 207 207 217 217 214 205 201 202 213 214 212 228 194 194 191 235 221 232 291 272 280 243 222 227 235 230 227 225 227 230 232 234 229 227 230 232 227 225 228 228 231 235 236 235
214 215 207 209 211 215 214 213 217 219 226 225 225 229 227 227 230 242 241 240 234 201 234 240 240 232 232 236 246 243 236 224 215 210 208 212 209 217 222 225 217 208 209 214 215 215 210 216 209 209 212 214 209 225 206 208 218 198 239 222 270 291 286 259 249 232 220 225 220 225 226 233 235 226 221 232 235 230 227 224 228 230 232 235 235
208 213 206 206 209 211 210 209 213 218 221 224 219 227 227 222 213 157 244 247 263 247 247 244 235 255 260 238 235 232 234 238 235 219 215 219 215 218 216 218 221 211 210 214 211 211 203 206 201 208 210 221 222 214 206 203 210 218 240 240 218 244 237 272 308 273 227 219 221 228 230 231 231 223 222 233 231 230 228 228 227 229 228 231 230
206 218 229 220 215 213 209 207 212 212 214 218 221 218 219 221 200 200 210 212 226 218 225 239 245 232 236 244 257 249 246 245 245 243 226 213 230 234 235 234 228 215 205 213 222 218 207 207 205 202 209 216 231 223 221 189 208 218 230 243 247 267 312 126 23 289 169 220 219 217 230 235 236 235 231 234 233 232 228 229 223 228 235 238 233
55 20 248 234 225 224 213 209 210 212 209 216 216 215 219 223 226 228 233 240 245 248 247 246 248 248 245 244 245 243 238 242 246 246 250 240 235 232 228 230 232 228 217 226 237 220 210 211 211 209 211 204 207 229 220 211 198 227 226 234 249 260 249 261 260 282 283 247 207 231 229 235 234 235 240 237 238 238 234 230 234 236 237 236 238
33 115 128 156 186 197 196 197 200 198 193 209 209 209 212 216 222 226 231 237 238 247 248 249 248 253 256 251 249 252 247 240 245 249 247 244 239 241 238 233 224 221 214 212 213 212 213 205 211 216 223 222 211 209 216 216 204 226 205 230 238 248 251 248 249 258 276 300 276 224 231 235 231 228 232 236 238 236 240 236 228 233 234 232 238
44 56 81 110 142 150 159 159 171 177 183 192 196 201 209 212 215 219 226 232 239 247 255 308 272 260 261 264 262 264 262 251 248 251 254 255 251 246 243 248 253 245 222 228 233 229 223 221 211 210 218 220 216 218 224 225 202 221 164 215 225 233 233 235 241 231 245 263 272 260 261 210 224 221 222 230 236 230 232 240 230 235 234 238 235
40 53 70 95 98 115 129 146 149 171 176 188 195 199 204 210 215 221 228 235 239 251 257 261 261 257 260 265 267 261 255 255 254 254 256 256 256 253 251 248 244 247 236 227 224 222 221 219 214 210 216 218 216 218 221 227 223 222 220 227 211 219 235 239 232 229 235 226 251 274 260 258 253 220 211 224 221 226 231 236 239 229 229 235 231
53 55 54 60 84 102 114 111 103 104 134 174 199 198 208 214 224 233 238 245 254 260 262 257 262 260 254 256 258 260 260 259 257 254 251 255 257 257 255 255 257 255 250 247 237 227 225 224 225 219 216 217 221 220 221 232 235 236 230 228 230 202 211 220 226 209 213 221 245 265 264 251 255 271 231 201 211 221 219 230 234 228 225 231 232